Location: Casalecchio di Reno
(44.4760°N, 11.2757°E)
Time: 14:46:39
(UTC+02:00)

DX 1 - Pass Details

Date: 20 June 2024
Orbit: 598 x 610 km, 98.3° (Epoch: 20 May)

Event Time Altitude Azimuth Distance (km) Brightness Sun altitude
Rises 02:06:40 0° 3° (N) 2,854 ? -21.1°
Reaches altitude 10° 02:09:01 10° 353° (N) 1,947 ? -21.0°
Maximum altitude 02:12:42 30° 292° (WNW) 1,078 ? -20.9°
Enters shadow 02:13:49 26° 263° (W) 1,183 ? -20.8°
